COSMOS 2251 DEB, 34564

Orbit data source: Space-Track

COSMOS 2251 DEB, 34564 is space debris in LEO originally from a launch on Wed, 16 Jun 1993 UTC launched from the Plesetsk Missile And Space Complex (PKMTR). The debris from Iridium 33, an American commercial communications satellite, has been tracked extensively since its accidental collision with the defunct Russian satellite Cosmos 2251 in 2009. This event, occurring at high speed in low Earth orbit (LEO), generated thousands of pieces of space debris, significantly increasing the risk of further collisions. The Iridium 33 debris cloud has impacted space traffic management and orbital debris mitigation strategies, making it a subject of ongoing study in space situational awareness.

Loading next visibility...
Identifier
34564, 1993-036VA
Orbit
LEO
Country
Flag of CISCIS
Related business
Manufacturer
Unknown
Mission
Spacecraft
Bus & Motor
Unknown
Mass
Unknown
Launch date (UTC)
1993-06-16 (33 years ago)
Launch vehicle
Unknown
Launch site
Plesetsk Missile And Space Complex (PKMTR)
Object type
Payload
Rocket body
Debris
Shape & HBR
Unknown shape, 0.1 m
Radar Cross Section
Medium (>0.1 m² and <1 m²)

Expand to show TLE details & history
Last TLE update: 23 hours ago

TLE from 23 hours ago
0 COSMOS 2251 DEB
1 34564U 93036VA  26262.92137394  .00000374  00000-0  12413-3 0  9997
2 34564  74.0306  77.5878 0018282 117.5856  34.1787 14.41074151920560
Epoch: 2026-09-19T22:06Z
TLE epoch observation values (Epoch: 2026-09-19T22:06:46.708Z)
Latitude
26.98772°
Longitude
-81.26435°
Altitude
747.156 km
Speed
7.489 km/s
True Right ascension
16h 37m 00s
True Declination
26° 50' 55"
Sunlit
Object was in daylight at epoch
Visualization orbit readout
Latitude
Unknown
Longitude
Unknown
Altitude
Unknown
Speed
Unknown
Apparent Right ascension
Unknown
Apparent Declination
Unknown
Sunlit
N/A
Visualization observer readout
Local Sidereal Time
14:21:02
Azimuth
Unknown
Elevation
Unknown
Doppler factor
Unknown
Orbital elements
Apogee altitude
765.607 km
Perigee altitude
739.534 km
Semi-major axis
7,130.708 km
Eccentricity
0.00183
Inclination
74.0306°
RAAN
77.5878°
Arg. of periapsis
117.5856°
True anomaly
34.29661°
Mean anomaly
34.1787°
Eccentric anomaly
34.23763°
Mean motion
3.60449 °/min
Orbital period
99.88 mins
BSTAR
0.00012413

Documentation

Showing up to 5 results
|